Date String (YYYY-MM-DD hh:mm:ss) UTC,Instrument flags,absolute air pressure of the measurement (hPa),sample flow rate (lpm),inlet stack bypass flow (lpm),air temperature of the measurement (°C),ambient temperature measured by the external sensor (°C),aerosol sample conditioner tube jacket temperature (°C),OPC LED temperature (°C),internal box temperature (°C),relative humidity of the measurement (%),span deviation,mass concentration of particles derived from Lorenz-Mie calculation of OPC scattering (μg/m³),mass concentration of particles derived from Lorenz-Mie calculation of OPC scattering (μg/m³),mass concentration of particles derived from Lorenz-Mie calculation of OPC scattering (μg/m³)
DateTimeUTC,F1_M11,P_M11,Q1_M11,Q2_M11,T1_M11,T2_M11,T3_M11,T4_M11,T5_M11,U1_M11,ZSPAN_M11,X0_M11,X2_M11,X1_M11
2023-10-11 02:00:00,SystemResetWarning,0820.0,5.02,000.00,028.2,024.6,000.0,036.7,029.8,11.1,0004.0,0026.55,0020.44,0019.85
2023-10-11 02:01:00,SystemResetWarning,0820.0,4.99,000.00,028.2,024.9,000.0,036.7,029.7,11.1,0003.9,0025.67,0020.23,0019.67
2023-10-11 02:02:00,SystemResetWarning,0820.1,5.00,000.00,028.1,025.3,000.0,036.7,029.7,11.0,0003.9,0025.41,0020.28,0019.71
2023-10-11 02:03:00,SystemResetWarning,0820.0,5.00,000.00,028.1,025.6,000.0,036.7,029.8,11.0,0003.8,0025.33,0020.53,0019.93
2023-10-11 02:04:00,SystemResetWarning,0820.0,5.01,000.00,028.1,025.9,000.0,036.7,029.9,11.0,0003.8,0024.57,0020.73,0020.14
2023-10-11 02:05:00,SystemResetWarning,0820.1,5.01,000.00,028.2,026.2,000.0,036.7,029.9,11.0,0003.8,0025.00,0020.93,0020.34
2023-10-11 02:06:00,SystemResetWarning,0820.1,5.00,000.00,028.2,026.4,000.0,036.7,030.0,11.1,0003.6,0024.94,0021.19,0020.59
2023-10-11 02:07:00,SystemResetWarning,0820.1,4.99,000.00,028.2,026.6,000.0,036.7,030.0,11.0,0003.3,0025.06,0021.47,0020.85
2023-10-11 02:08:00,SystemResetWarning,0820.1,4.99,000.00,028.2,026.8,000.0,036.7,030.0,11.0,0003.0,0025.37,0021.74,0021.08
2023-10-11 02:09:00,SystemResetWarning,0820.1,5.00,000.00,028.3,026.9,000.0,036.7,030.1,11.0,0002.8,0025.65,0021.90,0021.22
2023-10-11 02:10:00,SystemResetWarning,0820.1,5.01,000.00,028.3,027.0,000.0,036.7,030.1,11.0,0002.7,0025.73,0021.93,0021.26
2023-10-11 02:11:00,SystemResetWarning,0820.1,5.01,000.00,028.3,027.1,000.0,036.8,030.2,10.9,0002.6,0025.88,0021.94,0021.26
2023-10-11 02:12:00,SystemResetWarning,0820.0,5.01,000.00,028.4,027.2,000.0,036.8,030.2,10.9,0002.5,0025.92,0021.93,0021.25
2023-10-11 02:13:00,SystemResetWarning,0820.1,4.99,000.00,028.4,027.3,000.0,036.8,030.3,10.9,0002.5,0025.85,0021.87,0021.18
2023-10-11 02:14:00,SystemResetWarning,0820.0,4.99,000.00,028.4,027.3,000.0,036.8,030.3,10.9,0002.3,0025.92,0021.81,0021.08
2023-10-11 02:15:00,SystemResetWarning,0820.0,4.99,000.00,028.5,026.7,000.0,036.8,030.3,10.9,0002.2,0025.81,0021.64,0020.91
2023-10-11 02:16:00,SystemResetWarning,0820.0,5.00,000.00,028.4,024.9,000.0,036.8,030.1,11.0,0002.2,0025.55,0021.47,0020.74
2023-10-11 02:17:00,SystemResetWarning,0820.0,5.00,000.00,028.3,024.5,000.0,036.7,029.9,11.0,0002.4,0025.37,0021.26,0020.57
2023-10-11 02:18:00,SystemResetWarning,0820.0,5.01,000.00,028.2,024.7,000.0,036.7,029.7,11.1,0002.7,0025.43,0021.06,0020.36
2023-10-11 02:19:00,SystemResetWarning,0819.9,5.00,000.00,028.2,025.0,000.0,036.7,029.7,11.1,0003.0,0025.23,0020.84,0020.17
2023-10-11 02:20:00,SystemResetWarning,0819.9,5.00,000.00,028.2,025.4,000.0,036.7,029.8,11.1,0003.4,0024.90,0020.61,0019.96
2023-10-11 02:21:00,SystemResetWarning,0819.9,5.00,000.00,028.1,025.7,000.0,036.7,029.8,11.1,0003.7,0024.53,0020.40,0019.75
2023-10-11 02:22:00,SystemResetWarning,0819.9,5.00,000.00,028.1,026.0,000.0,036.7,029.9,11.1,0003.7,0024.15,0020.21,0019.59
2023-10-11 02:23:00,SystemResetWarning,0819.8,5.00,000.00,028.2,026.2,000.0,036.7,029.9,11.1,0003.8,0024.46,0020.00,0019.40
2023-10-11 02:24:00,SystemResetWarning,0819.9,5.00,000.00,028.2,026.4,000.0,036.7,029.9,11.1,0003.9,0024.39,0019.76,0019.19
2023-10-11 02:25:00,SystemResetWarning,0820.0,5.00,000.00,028.2,026.6,000.0,036.7,030.0,11.1,0004.1,0023.90,0019.42,0018.91
2023-10-11 02:26:00,SystemResetWarning,0819.9,5.00,000.00,028.2,026.7,000.0,036.7,030.0,11.2,0004.2,0023.54,0019.15,0018.64
2023-10-11 02:27:00,SystemResetWarning,0820.1,4.98,000.00,028.2,026.8,000.0,036.7,030.0,11.1,0004.1,0023.17,0018.83,0018.34
2023-10-11 02:28:00,SystemResetWarning,0820.1,5.00,000.00,028.3,026.9,000.0,036.8,030.1,11.1,0004.1,0022.58,0018.50,0018.04
2023-10-11 02:29:00,SystemResetWarning,0820.0,5.01,000.00,028.3,027.0,000.0,036.8,030.1,11.1,0004.0,0022.15,0018.23,0017.78
2023-10-11 02:30:00,SystemResetWarning,0820.0,5.01,000.00,028.3,027.1,000.0,036.8,030.2,11.1,0003.9,0021.90,0017.97,0017.55
2023-10-11 02:31:00,SystemResetWarning,0819.9,5.01,000.00,028.4,027.2,000.0,036.8,030.2,11.0,0003.8,0021.58,0017.74,0017.34
2023-10-11 02:32:00,SystemResetWarning,0819.8,4.99,000.00,028.4,027.3,000.0,036.8,030.2,11.0,0003.6,0021.48,0017.56,0017.15
2023-10-11 02:33:00,SystemResetWarning,0819.9,5.00,000.00,028.4,027.3,000.0,036.8,030.3,11.0,0003.8,0021.34,0017.36,0016.95
2023-10-11 02:34:00,SystemResetWarning,0819.9,5.00,000.00,028.5,027.0,000.0,036.9,030.3,11.0,0004.0,0020.61,0017.19,0016.79
2023-10-11 02:35:00,SystemResetWarning,0820.0,4.99,000.00,028.4,025.2,000.0,036.8,030.1,11.1,0004.1,0020.31,0017.09,0016.67
2023-10-11 02:36:00,SystemResetWarning,0820.1,5.01,000.00,028.4,024.6,000.0,036.7,029.9,11.1,0004.1,0020.27,0017.04,0016.62
2023-10-11 02:37:00,SystemResetWarning,0819.8,5.01,000.00,028.3,024.6,000.0,036.7,029.8,11.3,0004.2,0020.09,0016.88,0016.49
2023-10-11 02:38:00,SystemResetWarning,0819.9,4.99,000.00,028.2,025.0,000.0,036.7,029.8,11.3,0004.3,0020.14,0016.67,0016.27
2023-10-11 02:39:00,SystemResetWarning,0819.9,5.00,000.00,028.2,025.3,000.0,036.7,029.8,11.4,0004.4,0019.87,0016.37,0015.95
2023-10-11 02:40:00,SystemResetWarning,0819.9,5.00,000.00,028.2,025.7,000.0,036.7,029.8,11.4,0004.5,0019.32,0016.03,0015.60
2023-10-11 02:41:00,SystemResetWarning,0819.8,5.01,000.00,028.2,026.0,000.0,036.7,029.9,11.4,0004.5,0018.87,0015.67,0015.23
2023-10-11 02:42:00,SystemResetWarning,0819.8,5.00,000.00,028.2,026.2,000.0,036.7,029.9,11.4,0004.6,0018.42,0015.25,0014.83
2023-10-11 02:43:00,SystemResetWarning,0820.2,5.00,000.00,028.2,026.4,000.0,036.7,029.9,11.4,0004.6,0018.18,0014.74,0014.34
2023-10-11 02:44:00,SystemResetWarning,0819.9,5.00,000.00,028.2,026.6,000.0,036.7,030.0,11.3,0004.4,0017.81,0014.16,0013.79
2023-10-11 02:45:00,SystemResetWarning,0819.8,5.00,000.00,028.2,026.7,000.0,036.7,030.0,11.3,0004.2,0017.16,0013.54,0013.17
2023-10-11 02:46:00,SystemResetWarning,0820.0,5.00,000.00,028.2,026.8,000.0,036.8,030.0,11.3,0004.3,0016.55,0012.79,0012.46
2023-10-11 02:47:00,SystemResetWarning,0820.3,5.00,000.00,028.3,026.9,000.0,036.8,030.1,11.4,0004.2,0016.14,0012.06,0011.72
2023-10-11 02:48:00,SystemResetWarning,0820.0,5.01,000.00,028.3,027.0,000.0,036.8,030.1,11.4,0004.3,0015.50,0011.43,0011.07
2023-10-11 02:49:00,SystemResetWarning,0820.0,4.99,000.00,028.3,027.1,000.0,036.8,030.2,11.4,0002.2,0014.76,0010.92,0010.58
2023-10-11 02:50:00,SystemResetWarning,0820.1,4.99,000.00,028.4,027.2,000.0,036.8,030.2,11.4,0002.4,0014.16,0010.35,0010.02
2023-10-11 02:51:00,SystemResetWarning,0820.2,5.00,000.00,028.4,027.2,000.0,036.8,030.2,11.4,0004.3,0013.59,0009.82,0009.51
2023-10-11 02:52:00,SystemResetWarning,0820.3,5.01,000.00,028.4,027.3,000.0,036.8,030.2,11.0,0004.5,0013.02,0009.25,0008.96
2023-10-11 02:53:00,SystemResetWarning,0820.1,5.01,000.00,028.5,027.3,000.0,036.9,030.3,11.1,0002.5,0012.53,0008.75,0008.46
2023-10-11 02:54:00,SystemResetWarning,0820.2,5.00,000.00,028.5,026.6,000.0,036.9,030.2,11.2,0001.7,0011.83,0008.28,0007.99
2023-10-11 02:55:00,SystemResetWarning,0820.1,4.99,000.00,028.4,024.9,000.0,036.8,030.0,11.3,0000.0,0011.03,0007.85,0007.56
2023-10-11 02:56:00,SystemResetWarning,0820.1,5.01,000.00,028.4,024.6,000.0,036.7,029.9,11.5,0000.0,0010.83,0007.46,0007.16
2023-10-11 02:57:00,SystemResetWarning,0820.1,5.00,000.00,028.3,024.8,000.0,036.7,029.8,11.6,0000.0,0010.72,0007.15,0006.83
2023-10-11 02:58:00,SystemResetWarning,0820.1,5.00,000.00,028.2,025.1,000.0,036.8,029.8,11.6,0000.0,0010.77,0006.84,0006.51
2023-10-11 02:59:00,SystemResetWarning,0820.0,4.99,000.00,028.2,025.5,000.0,036.8,029.8,11.7,0000.0,0011.19,0006.54,0006.20
